GW2622 Weather Reports


time (UTC)temp
C
wind
direction
speed
KPH
gust
KPH
rain 1hr
cm
rain 24hr
cm
rain mn
cm
humidity
%
barometer
mb
20260901032248 26 272 0.0 0.0 0.00 0.00 0.00 94 1014.1
20260901031743 26 272 0.0 0.0 0.00 0.00 0.00 94 1014.1
20260901031239 26 272 0.0 0.0 0.00 0.00 0.00 93 1014.3
20260901030733 26 272 0.0 0.0 0.00 0.00 0.00 92 1014.3
20260901030228 27 272 0.0 0.0 0.00 0.00 0.00 91 1014.0
20260901025722 27 272 0.0 0.0 0.00 0.00 0.00 90 1014.1
20260901025217 27 272 0.0 0.0 0.00 0.00 0.00 90 1014.1
20260901024712 27 275 0.0 0.0 0.00 0.00 0.00 90 1014.2
20260901024211 27 275 0.0 0.0 0.00 0.00 0.00 90 1014.1
20260901023709 27 275 0.0 0.0 0.00 0.00 0.00 89 1014.3
20260901023204 27 275 0.0 0.0 0.00 0.00 0.00 90 1014.3
20260901022700 27 275 0.0 0.0 0.00 0.00 0.00 89 1014.2
20260901022155 27 275 0.0 0.0 0.00 0.00 0.00 89 1014.2
20260901021650 27 275 0.0 0.0 0.00 0.00 0.00 90 1014.2
20260901021145 27 275 0.0 0.0 0.00 0.00 0.00 90 1014.3
20260901020641 27 275 0.0 0.0 0.00 0.00 0.00 89 1014.2
20260901020137 27 275 0.0 0.0 0.00 0.00 0.00 89 1014.0
20260901015632 27 275 0.0 0.0 0.00 0.00 0.00 88 1013.7
20260901015131 27 275 0.0 0.0 0.00 0.00 0.00 87 1013.9
20260901014626 28 275 0.0 0.0 0.00 0.00 0.00 87 1014.0
20260901014122 27 275 0.0 0.0 0.00 0.00 0.00 88 1013.7
20260901013618 27 275 0.0 0.0 0.00 0.00 0.00 88 1013.9
20260901013114 27 275 0.0 0.0 0.00 0.00 0.00 88 1013.7
20260901012613 28 275 0.0 0.0 0.00 0.00 0.00 86 1013.5
20260901012108 28 275 0.0 0.0 0.00 0.00 0.00 85 1013.4
20260901011605 28 275 0.0 0.0 0.00 0.00 0.00 84 1013.4
20260901011103 29 275 0.0 0.0 0.00 0.00 0.00 83 1013.2
20260901010558 29 275 0.0 0.0 0.00 0.00 0.00 82 1013.1
20260901010056 30 275 0.0 0.0 0.00 0.00 0.00 82 1013.3
20260901005552 30 275 0.0 0.0 0.00 0.00 0.00 80 1013.4
20260901005047 30 275 0.0 0.0 0.00 0.00 0.00 80 1013.4
20260901004546 30 275 0.0 0.0 0.00 0.00 0.00 81 1013.3
20260901004041 30 275 0.0 0.0 0.00 0.00 0.00 82 1013.2
20260901003536 30 275 0.0 0.0 0.00 0.00 0.00 81 1013.2
20260901003034 30 275 0.0 0.0 0.00 0.00 0.00 80 1013.3
20260901002534 31 275 0.0 0.0 0.00 0.00 0.00 78 1013.1
20260901002029 31 275 0.0 0.0 0.00 0.00 0.00 78 1013.1
20260901001524 31 275 0.0 0.0 0.00 0.00 0.00 76 1013.1
20260901001019 31 275 0.0 0.0 0.00 0.00 0.00 76 1013.4
20260901000514 31 275 0.0 0.0 0.00 0.00 0.00 75 1013.1
20260901000010 31 276 0.0 0.0 0.00 0.00 0.00 75 1013.3
20260831235503 31 276 0.0 1.6 0.00 0.00 0.00 74 1013.3
20260831234959 31 272 1.6 3.2 0.00 0.00 0.00 74 1013.3
20260831234453 32 259 3.2 4.8 0.00 0.00 0.00 71 1013.1
20260831233948 32 229 3.2 8.0 0.00 0.00 0.00 71 1012.9
20260831233443 32 234 4.8 4.8 0.00 0.00 0.00 71 1013.1
20260831232939 32 221 6.4 8.0 0.00 0.00 0.00 71 1013.0
20260831232435 33 215 4.8 8.0 0.00 0.00 0.00 71 1013.1
20260831231930 33 241 4.8 9.7 0.00 0.00 0.00 70 1013.2
20260831231426 33 282 4.8 4.8 0.00 0.00 0.00 69 1013.1
20260831230922 33 269 1.6 3.2 0.00 0.00 0.00 68 1013.1
20260831230417 33 235 4.8 8.0 0.00 0.00 0.00 67 1013.1
20260831225911 33 229 4.8 4.8 0.00 0.00 0.00 66 1012.9
20260831225407 33 277 1.6 8.0 0.00 0.00 0.00 66 1013.0
20260831224902 33 206 4.8 4.8 0.00 0.00 0.00 65 1013.1
20260831224401 34 283 3.2 4.8 0.00 0.00 0.00 64 1012.9
20260831223856 34 239 4.8 8.0 0.00 0.00 0.00 63 1012.9
20260831223352 34 231 4.8 8.0 0.00 0.00 0.00 63 1013.0
20260831222849 33 228 4.8 8.0 0.00 0.00 0.00 64 1013.0
20260831222344 34 233 3.2 4.8 0.00 0.00 0.00 64 1013.0
20260831221839 35 226 6.4 9.7 0.00 0.00 0.00 63 1013.1
20260831221335 34 235 3.2 8.0 0.00 0.00 0.00 63 1013.0
20260831220829 34 217 4.8 8.0 0.00 0.00 0.00 63 1013.0
20260831220325 33 189 4.8 8.0 0.00 0.00 0.00 64 1012.9
20260831215820 34 218 4.8 9.7 0.00 0.00 0.00 64 1013.0
20260831215316 33 279 4.8 9.7 0.00 0.00 0.00 65 1013.0
20260831214812 33 239 11.3 12.9 0.00 0.00 0.00 64 1012.8
20260831214310 34 254 1.6 11.3 0.00 0.00 0.00 65 1012.9
20260831213805 34 190 9.7 14.5 0.00 0.00 0.00 63 1012.8
20260831213301 34 264 1.6 9.7 0.00 0.00 0.00 66 1012.9
20260831212756 34 202 8.0 11.3 0.00 0.00 0.00 66 1013.2
20260831212253 35 234 4.8 9.7 0.00 0.00 0.00 64 1013.0
20260831211751 34 262 1.6 8.0 0.00 0.00 0.00 63 1012.9
20260831211246 35 260 4.8 8.0 0.00 0.00 0.00 60 1012.9
20260831210740 35 290 1.6 4.8 0.00 0.00 0.00 62 1012.9
20260831210236 34 279 1.6 8.0 0.00 0.00 0.00 63 1013.0
20260831205735 34 260 4.8 4.8 0.00 0.00 0.00 59 1013.1
20260831205233 35 171 8.0 9.7 0.00 0.00 0.00 60 1013.1
20260831204732 34 236 4.8 11.3 0.00 0.00 0.00 61 1013.1
20260831204231 33 263 4.8 9.7 0.00 0.00 0.00 63 1013.2
20260831203725 33 251 8.0 9.7 0.00 0.00 0.00 64 1013.3
20260831203226 33 207 8.0 11.3 0.00 0.00 0.00 66 1013.2
20260831202724 33 229 12.9 16.1 0.00 0.00 0.00 66 1013.1
20260831202219 33 230 9.7 12.9 0.00 0.00 0.00 67 1013.1
20260831201718 33 208 8.0 14.5 0.00 0.00 0.00 69 1013.1
20260831201213 34 207 9.7 12.9 0.00 0.00 0.00 67 1013.2
20260831200708 34 222 8.0 11.3 0.00 0.00 0.00 68 1013.1
20260831200208 35 239 6.4 8.0 0.00 0.00 0.00 63 1013.1
20260831195704 35 213 4.8 4.8 0.00 0.00 0.00 65 1013.3
20260831195200 33 281 1.6 8.0 0.00 0.00 0.00 66 1013.1
20260831194654 33 245 3.2 3.2 0.00 0.00 0.00 66 1013.1
20260831194149 33 225 1.6 4.8 0.00 0.00 0.00 66 1013.1
20260831193643 33 248 4.8 9.7 0.00 0.00 0.00 65 1013.2
20260831193139 33 238 3.2 8.0 0.00 0.00 0.00 66 1013.2
20260831192634 33 256 3.2 8.0 0.00 0.00 0.00 66 1013.2
20260831192130 33 211 6.4 12.9 0.00 0.00 0.00 65 1013.1
20260831191625 33 228 6.4 9.7 0.00 0.00 0.00 68 1013.1
20260831191121 33 169 4.8 9.7 0.00 0.00 0.00 68 1013.1
20260831190616 33 199 6.4 11.3 0.00 0.00 0.00 67 1013.0
20260831190115 33 190 8.0 12.9 0.00 0.00 0.00 65 1013.2
20260831185611 34 250 3.2 4.8 0.00 0.00 0.00 62 1013.2
20260831185106 33 222 6.4 11.3 0.00 0.00 0.00 66 1013.3
20260831184605 33 210 8.0 9.7 0.00 0.00 0.00 64 1013.2
20260831184101 33 238 9.7 11.3 0.00 0.00 0.00 67 1013.2
20260831183600 33 216 6.4 9.7 0.00 0.00 0.00 65 1013.3
20260831183054 33 287 3.2 9.7 0.00 0.00 0.00 65 1013.2
20260831182549 32 212 8.0 9.7 0.00 0.00 0.00 67 1013.3
20260831182044 33 260 8.0 12.9 0.00 0.00 0.00 68 1013.1
20260831181539 33 228 6.4 9.7 0.00 0.00 0.00 65 1013.1
20260831181038 32 279 1.6 8.0 0.00 0.00 0.00 65 1013.2
20260831180534 32 248 4.8 8.0 0.00 0.00 0.00 66 1013.1
20260831180028 32 215 4.8 8.0 0.00 0.00 0.00 68 1013.0
20260831175524 33 170 3.2 9.7 0.00 0.00 0.00 67 1012.9
20260831175021 32 226 3.2 3.2 0.00 0.00 0.00 66 1013.2
20260831174520 32 246 3.2 4.8 0.00 0.00 0.00 68 1013.1
20260831174015 32 279 1.6 9.7 0.00 0.00 0.00 68 1013.3
20260831173513 32 192 3.2 8.0 0.00 0.00 0.00 67 1013.0
20260831173010 33 220 1.6 8.0 0.00 0.00 0.00 64 1013.2
20260831172504 32 155 3.2 4.8 0.00 0.00 0.00 67 1013.1
20260831171959 31 162 4.8 9.7 0.00 0.00 0.00 70 1013.3
20260831171455 31 228 4.8 9.7 0.00 0.00 0.00 70 1013.2
20260831170952 31 278 1.6 4.8 0.00 0.00 0.00 70 1013.1
20260831170448 31 222 3.2 4.8 0.00 0.00 0.00 69 1013.2
20260831165945 31 230 4.8 4.8 0.00 0.00 0.00 70 1013.0
20260831165440 31 285 1.6 4.8 0.00 0.00 0.00 69 1013.1
20260831164937 31 175 4.8 8.0 0.00 0.00 0.00 68 1013.0
20260831164432 31 234 4.8 8.0 0.00 0.00 0.00 69 1012.9
20260831163927 30 172 4.8 11.3 0.00 0.00 0.00 70 1012.8
20260831163422 30 199 6.4 8.0 0.00 0.00 0.00 70 1012.8
20260831162921 30 230 3.2 8.0 0.00 0.00 0.00 71 1012.8
20260831162416 30 170 4.8 8.0 0.00 0.00 0.00 68 1012.7
20260831161914 30 255 4.8 12.9 0.00 0.00 0.00 71 1012.8
20260831161411 30 268 4.8 4.8 0.00 0.00 0.00 69 1012.8
20260831160906 29 246 4.8 8.0 0.00 0.00 0.00 71 1012.9
20260831160401 29 211 4.8 8.0 0.00 0.00 0.00 71 1012.8
20260831155856 30 208 4.8 8.0 0.00 0.00 0.00 70 1012.8
20260831155351 30 290 4.8 4.8 0.00 0.00 0.00 70 1012.6
20260831154846 28 264 0.0 1.6 0.00 0.00 0.00 72 1012.7
20260831154343 28 282 0.0 3.2 0.00 0.00 0.00 73 1012.9
20260831153841 29 253 1.6 3.2 0.00 0.00 0.00 71 1012.7
20260831153337 29 266 1.6 3.2 0.00 0.00 0.00 69 1012.5
20260831152833 30 268 4.8 9.7 0.00 0.00 0.00 69 1013.0
20260831152329 30 272 3.2 4.8 0.00 0.00 0.00 70 1012.9
20260831151824 30 251 4.8 11.3 0.00 0.00 0.00 68 1012.8
20260831151322 30 105 3.2 4.8 0.00 0.00 0.00 69 1012.9
20260831150818 29 297 4.8 8.0 0.00 0.00 0.00 69 1013.0
20260831150314 28 210 4.8 9.7 0.00 0.00 0.00 70 1012.9
20260831145812 28 285 4.8 9.7 0.00 0.00 0.00 71 1013.0
20260831145309 28 233 6.4 11.3 0.00 0.00 0.00 71 1012.9
20260831144804 27 233 9.7 12.9 0.00 0.00 0.00 72 1012.9
20260831144301 28 206 9.7 17.7 0.00 0.00 0.00 70 1013.0
20260831143800 28 221 6.4 12.9 0.00 0.00 0.00 70 1013.0
20260831143255 27 234 3.2 11.3 0.00 0.00 0.00 71 1012.8
20260831142750 27 230 8.0 11.3 0.00 0.00 0.00 71 1012.8
20260831142246 27 219 4.8 9.7 0.00 0.00 0.00 71 1012.6
20260831141745 27 251 4.8 11.3 0.00 0.00 0.00 72 1012.7
20260831141245 27 242 1.6 4.8 0.00 0.00 0.00 73 1012.6
20260831140740 27 201 8.0 9.7 0.00 0.00 0.00 73 1012.7
20260831140234 26 229 4.8 9.7 0.00 0.00 0.00 75 1012.5
20260831135732 26 192 4.8 8.0 0.00 0.00 0.00 74 1012.6
20260831135228 26 219 8.0 12.9 0.00 0.00 0.00 75 1012.5
20260831134723 26 210 3.2 9.7 0.00 0.00 0.00 75 1012.4
20260831134220 26 240 6.4 9.7 0.00 0.00 0.00 75 1012.5
20260831133718 26 212 4.8 12.9 0.00 0.00 0.00 76 1012.6
20260831133213 26 222 4.8 9.7 0.00 0.00 0.00 75 1012.5
20260831132709 25 233 3.2 12.9 0.00 0.00 0.00 76 1012.3
20260831132203 25 227 6.4 9.7 0.00 0.00 0.00 76 1012.4
20260831131702 25 251 4.8 8.0 0.00 0.00 0.00 76 1012.3
20260831131159 25 212 4.8 8.0 0.00 0.00 0.00 76 1012.2
20260831130654 25 178 6.4 11.3 0.00 0.00 0.00 77 1012.1
20260831130149 25 259 4.8 8.0 0.00 0.00 0.00 77 1012.0
20260831125648 24 231 6.4 9.7 0.00 0.00 0.00 78 1012.0
20260831125143 25 225 8.0 11.3 0.00 0.00 0.00 78 1011.7
20260831124639 25 218 8.0 14.5 0.00 0.00 0.00 78 1011.6
20260831124135 24 222 11.3 12.9 0.00 0.00 0.00 77 1011.8
20260831123630 24 219 6.4 9.7 0.00 0.00 0.00 78 1011.5
20260831123129 24 217 14.5 20.9 0.00 0.00 0.00 77 1011.5
20260831122628 24 180 4.8 11.3 0.00 0.00 0.00 79 1011.5
20260831122125 24 203 8.0 12.9 0.00 0.00 0.00 78 1011.4
20260831121624 24 218 11.3 12.9 0.00 0.00 0.00 78 1011.6
20260831121121 24 208 11.3 20.9 0.00 0.00 0.00 78 1011.2
20260831120620 24 253 9.7 14.5 0.00 0.00 0.00 78 1011.4
20260831120115 24 221 11.3 14.5 0.00 0.00 0.00 78 1011.4
20260831115612 23 215 9.7 14.5 0.00 0.00 0.00 78 1011.2
20260831115107 23 166 8.0 12.9 0.00 0.00 0.00 79 1011.2
20260831114606 23 212 9.7 14.5 0.00 0.00 0.00 78 1011.2
20260831114101 24 193 8.0 11.3 0.00 0.00 0.00 78 1011.3
20260831113600 23 219 8.0 11.3 0.00 0.00 0.00 79 1011.3
20260831113056 23 222 6.4 11.3 0.00 0.00 0.00 79 1011.4
20260831112554 23 229 6.4 8.0 0.00 0.00 0.00 79 1011.3
20260831112050 23 187 6.4 8.0 0.00 0.00 0.00 78 1011.1
20260831111546 24 235 4.8 8.0 0.00 0.00 0.00 78 1011.2
20260831111041 23 260 1.6 9.7 0.00 0.00 0.00 78 1011.2
20260831110536 23 252 4.8 4.8 0.00 0.00 0.00 79 1011.1
20260831110026 23 250 3.2 8.0 0.00 0.00 0.00 79 1011.0
20260831105525 23 229 4.8 4.8 0.00 0.00 0.00 80 1010.9
20260831105020 23 236 3.2 4.8 0.00 0.00 0.00 79 1010.9
20260831104516 24 232 3.2 8.0 0.00 0.00 0.00 79 1010.7
20260831104013 24 210 4.8 8.0 0.00 0.00 0.00 78 1010.6
20260831103513 24 224 6.4 9.7 0.00 0.00 0.00 78 1010.7
20260831103009 24 196 4.8 9.7 0.00 0.00 0.00 78 1010.7
20260831102503 24 213 4.8 8.0 0.00 0.00 0.00 79 1010.7
20260831101958 24 206 4.8 8.0 0.00 0.00 0.00 78 1010.6
20260831101453 24 223 6.4 9.7 0.00 0.00 0.00 78 1010.6
20260831100949 24 217 6.4 8.0 0.00 0.00 0.00 78 1010.7
20260831100445 24 180 4.8 8.0 0.00 0.00 0.00 78 1010.6
20260831095940 25 196 4.8 9.7 0.00 0.00 0.00 77 1010.6
20260831095439 24 214 6.4 9.7 0.00 0.00 0.00 77 1010.7
20260831094933 24 201 6.4 9.7 0.00 0.00 0.00 78 1010.7
20260831094430 24 221 4.8 9.7 0.00 0.00 0.00 78 1010.5
20260831093925 25 256 3.2 8.0 0.00 0.00 0.00 77 1010.7
20260831093420 25 222 4.8 8.0 0.00 0.00 0.00 77 1010.6
20260831092917 25 246 3.2 4.8 0.00 0.00 0.00 76 1010.8
20260831092412 25 229 3.2 4.8 0.00 0.00 0.00 76 1011.0
20260831091907 25 259 3.2 8.0 0.00 0.00 0.00 75 1010.8
20260831091402 25 229 3.2 4.8 0.00 0.00 0.00 75 1010.9
20260831090852 25 207 4.8 8.0 0.00 0.00 0.00 75 1011.0
20260831090348 25 217 6.4 9.7 0.00 0.00 0.00 75 1010.7
20260831085844 25 195 4.8 9.7 0.00 0.00 0.00 74 1010.8
20260831085338 25 218 8.0 12.9 0.00 0.00 0.00 74 1010.6
20260831084833 26 239 6.4 11.3 0.00 0.00 0.00 74 1010.9
20260831084330 26 224 9.7 11.3 0.00 0.00 0.00 74 1010.7
20260831083826 26 213 8.0 16.1 0.00 0.00 0.00 73 1010.8
20260831083321 26 226 9.7 12.9 0.00 0.00 0.00 74 1010.7
20260831082819 26 221 11.3 14.5 0.00 0.00 0.00 73 1010.5
20260831082314 26 221 8.0 16.1 0.00 0.00 0.00 74 1010.8
20260831081810 26 206 6.4 11.3 0.00 0.00 0.00 74 1010.7
20260831081305 26 188 6.4 12.9 0.00 0.00 0.00 74 1010.8
20260831080800 26 168 11.3 12.9 0.00 0.00 0.00 74 1010.7
20260831080255 26 168 9.7 12.9 0.00 0.00 0.00 73 1010.7
20260831075752 26 216 8.0 11.3 0.00 0.00 0.00 74 1010.8
20260831075247 26 193 6.4 12.9 0.00 0.00 0.00 74 1010.6
20260831074746 26 217 8.0 12.9 0.00 0.00 0.00 74 1010.7
20260831074240 26 196 6.4 11.3 0.00 0.00 0.00 74 1010.7
20260831073736 26 212 11.3 12.9 0.00 0.00 0.00 73 1010.6
20260831073235 26 194 6.4 11.3 0.00 0.00 0.00 74 1010.7
20260831072730 26 139 9.7 12.9 0.00 0.00 0.00 74 1010.6
20260831072226 26 189 4.8 11.3 0.00 0.00 0.00 74 1010.6
20260831071721 26 226 4.8 8.0 0.00 0.00 0.00 75 1010.8
20260831071221 26 204 4.8 11.3 0.00 0.00 0.00 75 1010.6
20260831070715 26 155 4.8 9.7 0.00 0.00 0.00 75 1010.5
20260831070209 26 164 6.4 8.0 0.00 0.00 0.00 75 1010.9
20260831065709 26 233 4.8 9.7 0.00 0.00 0.00 75 1010.7
20260831065207 26 174 6.4 9.7 0.00 0.00 0.00 75 1010.7
20260831064702 26 162 8.0 12.9 0.00 0.00 0.00 75 1010.7
20260831064157 26 192 6.4 9.7 0.00 0.00 0.00 75 1010.8
20260831063653 26 223 4.8 8.0 0.00 0.00 0.00 77 1010.8
20260831063143 26 157 8.0 11.3 0.00 0.00 0.00 76 1010.9
20260831062642 26 179 8.0 9.7 0.00 0.00 0.00 78 1011.0
20260831062136 26 190 6.4 9.7 0.00 0.00 0.00 78 1010.9
20260831061634 26 171 6.4 9.7 0.00 0.00 0.00 78 1011.2
20260831061130 25 177 6.4 8.0 0.00 0.00 0.00 79 1010.9
20260831060626 25 185 4.8 8.0 0.00 0.00 0.00 79 1011.1
20260831060120 26 192 6.4 8.0 0.00 0.00 0.00 79 1011.1
20260831055614 26 181 4.8 8.0 0.00 0.00 0.00 80 1010.9
20260831055110 26 180 4.8 9.7 0.00 0.00 0.00 80 1011.0
20260831054609 26 168 6.4 8.0 0.00 0.00 0.00 80 1011.0
20260831054109 26 201 4.8 8.0 0.00 0.00 0.00 80 1011.1
20260831053608 26 162 6.4 8.0 0.00 0.00 0.00 80 1010.9
20260831053102 26 188 6.4 12.9 0.00 0.00 0.00 79 1011.0
20260831052601 26 179 8.0 11.3 0.00 0.00 0.00 79 1010.9
20260831052056 26 166 6.4 11.3 0.00 0.00 0.00 79 1010.9
20260831051554 26 161 6.4 16.1 0.00 0.00 0.00 79 1010.7
20260831051053 26 178 8.0 12.9 0.00 0.00 0.00 79 1010.6
20260831050553 26 175 6.4 11.3 0.00 0.00 0.00 79 1010.7
20260831050051 26 189 6.4 12.9 0.00 0.00 0.00 79 1010.7
20260831045551 26 171 8.0 12.9 0.00 0.00 0.00 79 1010.7
20260831045046 26 240 6.4 9.7 0.00 0.00 0.00 80 1010.5
20260831044541 26 159 9.7 16.1 0.00 0.00 0.00 79 1010.7
20260831044036 26 178 4.8 9.7 0.00 0.00 0.00 80 1010.8
20260831043537 26 153 6.4 9.7 0.00 0.00 0.00 80 1010.7
20260831043032 26 184 6.4 9.7 0.00 0.00 0.00 79 1010.6
20260831042527 26 174 6.4 11.3 0.00 0.00 0.00 80 1010.7
20260831042026 26 159 4.8 9.7 0.00 0.00 0.00 80 1010.8
20260831041521 26 223 4.8 12.9 0.00 0.00 0.00 80 1010.8
20260831041015 26 197 6.4 9.7 0.00 0.00 0.00 80 1010.8
20260831040510 26 156 6.4 9.7 0.00 0.00 0.00 81 1010.8
20260831040009 26 204 6.4 9.7 0.00 0.00 0.00 81 1010.9
20260831035502 26 173 4.8 11.3 0.00 0.00 0.00 81 1010.8
20260831034957 26 184 6.4 12.9 0.00 0.00 0.00 81 1010.7
20260831034451 26 174 6.4 11.3 0.00 0.00 0.00 81 1010.9
20260831033947 26 186 9.7 14.5 0.00 0.00 0.00 82 1011.0
20260831033442 26 191 4.8 8.0 0.00 0.00 0.00 83 1010.8
20260831032937 26 176 4.8 8.0 0.00 0.00 0.00 83 1010.8
20260831032432 26 184 6.4 11.3 0.00 0.00 0.00 82 1011.0